Change the Weather History Date:

Saturday, October 27, 2012

  Actual Average (KABI) Record (KABI)
Temperature  
Mean Temperature 46 °F 62 °F  
Max Temperature 60 °F 74 °F 90 °F (1988)
Min Temperature 32 °F 51 °F 28 °F (1997)
Degree Days  
Heating Degree Days 19 5  
Month to date heating degree days 71  
Since 1 July heating degree days 82  
Cooling Degree Days 0 2  
Month to date cooling degree days 109  
Year to date cooling degree days 2380  
Moisture  
Dew Point 27 °F    
Average Humidity 55    
Maximum Humidity 87    
Minimum Humidity 23    
Precipitation  
Precipitation 0.00 in 0.09 in 1.36 in (1991)
Month to date precipitation 2.66  
Year to date precipitation 21.86  
Sea Level Pressure  
Sea Level Pressure 30.29 in    
Wind  
Wind Speed 4 mph (North)    
Max Wind Speed 9 mph    
Max Gust Speed -    
Visibility 10 miles    
Events      
T = Trace of Precipitation, MM = Missing Value Source: NWS Daily Summary

Daily Weather History Graph

Daily Weather History Graph

Search for Another Location

Airport or City:

Trip Planner

Search our weather history database for the weather conditions in past years. The results will help you decide how hot, cold, wet, or windy it might be!

Date:

Astronomy

Oct. 27, 2012 Rise Set
Actual Time 7:49 AM CDT 6:48 PM CDT
Civil Twilight 7:24 AM CDT 7:14 PM CDT
Nautical Twilight 6:55 AM CDT 7:43 PM CDT
Astronomical Twilight 6:26 AM CDT 8:11 PM CDT
Moon 5:32 PM CDT (10/27) 5:50 AM CDT (10/27)
Length of Visible Light 11h 49m
Length of Day
10h 59m
Waxing Gibbous, 96% of the Moon is Illuminated
Oct 27
Waxing Gibbous
Oct 29
Full
Nov 6
Last Quarter
Nov 13
New
Nov 20
First Quarter

Hourly Weather History & Observations

Time (CDT) Temp. Windchill Dew Point Humidity Pressure Visibility Wind Dir Wind Speed Gust Speed Precip Events Conditions
12:15 AM 41.0 °F 37.1 °F 30.2 °F 65% 30.36 in 10.0 mi North 5.8 mph - N/A   Clear
12:35 AM 41.0 °F 37.1 °F 30.2 °F 65% 30.36 in 10.0 mi North 5.8 mph - N/A   Clear
12:55 AM 37.4 °F 33.8 °F 30.2 °F 75% 30.36 in 10.0 mi North 4.6 mph - N/A   Clear
1:15 AM 37.4 °F 34.9 °F 30.2 °F 75% 30.35 in 10.0 mi North 3.5 mph - N/A   Clear
1:35 AM 35.6 °F 30.7 °F 28.4 °F 75% 30.35 in 10.0 mi North 5.8 mph - N/A   Clear
1:55 AM 35.6 °F - 30.2 °F 81% 30.35 in 10.0 mi Calm Calm - N/A   Clear
2:15 AM 35.6 °F 32.8 °F 30.2 °F 81% 30.35 in 10.0 mi North 3.5 mph - N/A   Clear
2:55 AM 37.4 °F - 30.2 °F 75% 30.34 in 10.0 mi Calm Calm - N/A   Clear
3:15 AM 35.6 °F 32.8 °F 28.4 °F 75% 30.34 in 10.0 mi NNW 3.5 mph - N/A   Clear
3:35 AM 33.8 °F 30.8 °F 28.4 °F 81% 30.34 in 10.0 mi North 3.5 mph - N/A   Clear
3:55 AM 35.6 °F 30.7 °F 30.2 °F 81% 30.33 in 10.0 mi North 5.8 mph - N/A   Clear
4:15 AM 35.6 °F - 28.4 °F 75% 30.33 in 10.0 mi Calm Calm - N/A   Clear
4:35 AM 35.6 °F 31.7 °F 30.2 °F 81% 30.33 in 10.0 mi North 4.6 mph - N/A   Clear
4:55 AM 35.6 °F 32.8 °F 30.2 °F 81% 30.33 in 10.0 mi North 3.5 mph - N/A   Clear
5:15 AM 35.6 °F 30.7 °F 30.2 °F 81% 30.33 in 10.0 mi North 5.8 mph - N/A   Clear
5:35 AM 33.8 °F - 28.4 °F 81% 30.33 in 10.0 mi Calm Calm - N/A   Clear
5:55 AM 33.8 °F 29.6 °F 28.4 °F 81% 30.33 in 10.0 mi North 4.6 mph - N/A   Clear
6:15 AM 33.8 °F 30.8 °F 28.4 °F 81% 30.33 in 10.0 mi North 3.5 mph - N/A   Clear
6:55 AM 33.8 °F 29.6 °F 30.2 °F 87% 30.34 in 10.0 mi North 4.6 mph - N/A   Clear
7:15 AM 33.8 °F 29.6 °F 28.4 °F 81% 30.35 in 10.0 mi North 4.6 mph - N/A   Clear
7:35 AM 33.8 °F 28.6 °F 28.4 °F 81% 30.35 in 10.0 mi North 5.8 mph - N/A   Clear
7:55 AM 32.0 °F 26.4 °F 28.4 °F 87% 30.35 in 10.0 mi North 5.8 mph - N/A   Clear
8:15 AM 33.8 °F 29.6 °F 30.2 °F 87% 30.35 in 10.0 mi North 4.6 mph - N/A   Clear
8:35 AM 35.6 °F 32.8 °F 30.2 °F 81% 30.36 in 10.0 mi North 3.5 mph - N/A   Clear
8:55 AM 37.4 °F 33.8 °F 30.2 °F 75% 30.36 in 10.0 mi North 4.6 mph - N/A   Clear
9:15 AM 39.2 °F 35.0 °F 30.2 °F 70% 30.37 in 10.0 mi NNE 5.8 mph - N/A   Clear
9:35 AM 41.0 °F 38.0 °F 30.2 °F 65% 30.37 in 10.0 mi NNE 4.6 mph - N/A   Clear
10:35 AM 46.4 °F 42.9 °F 30.2 °F 53% 30.37 in 10.0 mi NE 6.9 mph - N/A   Clear
10:55 AM 46.4 °F 42.4 °F 30.2 °F 53% 30.36 in 10.0 mi NE 8.1 mph - N/A   Clear
11:15 AM 48.2 °F - 30.2 °F 50% 30.36 in 10.0 mi NE 5.8 mph - N/A   Clear
11:35 AM 50.0 °F - 28.4 °F 43% 30.35 in 10.0 mi NNE 9.2 mph - N/A   Clear
11:55 AM 50.0 °F - 28.4 °F 43% 30.34 in 10.0 mi NE 5.8 mph - N/A   Clear
12:15 PM 51.8 °F - 28.4 °F 41% 30.33 in 10.0 mi North 5.8 mph - N/A   Clear
12:35 PM 53.6 °F - 30.2 °F 41% 30.32 in 10.0 mi NE 6.9 mph - N/A   Clear
12:55 PM 53.6 °F - 28.4 °F 38% 30.30 in 10.0 mi Calm Calm - N/A   Clear
1:15 PM 55.4 °F - 28.4 °F 36% 30.29 in 10.0 mi WNW 3.5 mph - N/A   Clear
1:35 PM 55.4 °F - 28.4 °F 36% 30.27 in 10.0 mi Calm Calm - N/A   Clear
1:55 PM 57.2 °F - 24.8 °F 29% 30.25 in 10.0 mi North 5.8 mph - N/A   Clear
2:15 PM 57.2 °F - 26.6 °F 31% 30.24 in 10.0 mi North 3.5 mph - N/A   Clear
2:35 PM 59.0 °F - 26.6 °F 29% 30.23 in 10.0 mi NNW 3.5 mph - N/A   Clear
2:55 PM 59.0 °F - 26.6 °F 29% 30.21 in 10.0 mi NNW 6.9 mph - N/A   Clear
3:15 PM 59.0 °F - 24.8 °F 27% 30.21 in 10.0 mi WNW 5.8 mph - N/A   Clear
3:35 PM 59.0 °F - 23.0 °F 25% 30.20 in 10.0 mi NW 5.8 mph - N/A   Clear
3:55 PM 60.8 °F - 24.8 °F 25% 30.20 in 10.0 mi North 6.9 mph - N/A   Clear
4:15 PM 59.0 °F - 23.0 °F 25% 30.19 in 10.0 mi Calm Calm - N/A   Clear
4:35 PM 60.8 °F - 23.0 °F 23% 30.19 in 10.0 mi NW 4.6 mph - N/A   Clear
4:55 PM 60.8 °F - 23.0 °F 23% 30.19 in 10.0 mi Calm Calm - N/A   Clear
5:15 PM 60.8 °F - 23.0 °F 23% 30.19 in 10.0 mi North 6.9 mph - N/A   Clear
5:35 PM 59.0 °F - 23.0 °F 25% 30.19 in 10.0 mi NE 3.5 mph - N/A   Clear
5:55 PM 59.0 °F - 23.0 °F 25% 30.19 in 10.0 mi NNE 3.5 mph - N/A   Clear
6:15 PM 57.2 °F - 23.0 °F 27% 30.19 in 10.0 mi NE 3.5 mph - N/A   Clear
6:35 PM 55.4 °F - 23.0 °F 29% 30.18 in 10.0 mi NE 3.5 mph - N/A   Clear
6:55 PM 53.6 °F - 24.8 °F 33% 30.19 in 10.0 mi NE 4.6 mph - N/A   Clear
7:15 PM 51.8 °F - 24.8 °F 35% 30.19 in 10.0 mi NE 4.6 mph - N/A   Clear
7:55 PM 46.4 °F 45.2 °F 28.4 °F 50% 30.21 in 10.0 mi ENE 3.5 mph - N/A   Clear
8:15 PM 46.4 °F 44.3 °F 28.4 °F 50% 30.21 in 10.0 mi NE 4.6 mph - N/A   Clear
8:35 PM 46.4 °F 45.2 °F 28.4 °F 50% 30.21 in 10.0 mi NE 3.5 mph - N/A   Clear
8:55 PM 42.8 °F - 24.8 °F 49% 30.21 in 10.0 mi Calm Calm - N/A   Clear
9:15 PM 41.0 °F 39.0 °F 23.0 °F 49% 30.22 in 10.0 mi ENE 3.5 mph - N/A   Clear
9:35 PM 41.0 °F - 23.0 °F 49% 30.22 in 10.0 mi Calm Calm - N/A   Clear
9:55 PM 41.0 °F - 23.0 °F 49% 30.23 in 10.0 mi Calm Calm - N/A   Clear
10:15 PM 39.2 °F - 24.8 °F 56% 30.23 in 10.0 mi Calm Calm - N/A   Clear
10:35 PM 37.4 °F - 21.2 °F 52% 30.24 in 10.0 mi Calm Calm - N/A   Clear
11:55 PM 35.6 °F - 26.6 °F 70% 30.25 in 10.0 mi Calm Calm - N/A   Clear